Location: Baumgarten
(49.0970°N, 12.7493°E)
Time: 02:18:44
(UTC+00:00)

Cosmos 1680 Rocket - Pass Details

Date: 05 July 2020
Orbit: 760 x 781 km, 74.1° (Epoch: 04 August)

Event Time Altitude Azimuth Distance (km) Brightness Sun altitude
Exits shadow 21:35:41 22° 174° (S) 1,658 4.7 -15.0°
Maximum altitude 21:38:56 52° 106° (ESE) 966 3.8 -15.2°
Drops below altitude 10° 21:44:06 10° 32° (NNE) 2,347 6.5 -15.5°
Sets 21:46:32 0° 27° (NNE) 3,278 7.4 -15.6°
